JTA626 ROIG-ROAH

Flight info

Callsign JTA626
Flight time 0h 38m
Altitude 27000
Route MJC Y57 VELNO
Aircraft B738/M-SDE2E3FGHIRWXY/LB1

Departure

Time 2026-04-21 08:32
Airport New Ishigaki Airport (ROIG)

Arrival

Time 2026-04-21 09:11
Airport Naha International Airport (ROAH)
Time Latitude Longitude Altitude Speed Heading
2026-04-21 08:12 24.39138 124.24522 107 ft 0 kts 126°
2026-04-21 08:25 24.39139 124.24519 107 ft 2 kts 126°
2026-04-21 08:25 24.39148 124.24506 107 ft 2 kts 126°
2026-04-21 08:26 24.39156 124.24493 107 ft 2 kts 126°
2026-04-21 08:26 24.39165 124.24480 107 ft 2 kts 126°
2026-04-21 08:26 24.39174 124.24467 107 ft 2 kts 126°
2026-04-21 08:26 24.39183 124.24453 107 ft 2 kts 126°
2026-04-21 08:27 24.39192 124.24440 107 ft 2 kts 126°
2026-04-21 08:27 24.39201 124.24426 107 ft 2 kts 128°
2026-04-21 08:27 24.39213 124.24416 107 ft 2 kts 160°
2026-04-21 08:27 24.39228 124.24413 107 ft 2 kts 184°
2026-04-21 08:28 24.39243 124.24418 107 ft 2 kts 208°
2026-04-21 08:28 24.39249 124.24422 107 ft 1 kts 219°
2026-04-21 08:28 24.39251 124.24424 107 ft 0 kts 216°
2026-04-21 08:30 24.39237 124.24412 107 ft 8 kts 216°
2026-04-21 08:30 24.39138 124.24335 107 ft 25 kts 215°
2026-04-21 08:30 24.38984 124.24214 107 ft 27 kts 216°
2026-04-21 08:31 24.38858 124.24114 107 ft 12 kts 222°
2026-04-21 08:31 24.38857 124.24042 107 ft 10 kts 302°
2026-04-21 08:31 24.38899 124.23981 107 ft 9 kts 307°
2026-04-21 08:31 24.38951 124.23962 107 ft 11 kts 31°
2026-04-21 08:32 24.39167 124.24133 107 ft 77 kts 36°
2026-04-21 08:32 24.39816 124.24644 107 ft 149 kts 34°
2026-04-21 08:32 24.40753 124.25380 615 ft 168 kts 39°
2026-04-21 08:32 24.41538 124.26231 1476 ft 164 kts 63°
2026-04-21 08:33 24.41966 124.27441 2113 ft 180 kts 72°
2026-04-21 08:33 24.42386 124.28766 2831 ft 193 kts 70°
2026-04-21 08:33 24.42883 124.30215 3493 ft 213 kts 69°
2026-04-21 08:33 24.43454 124.31773 4212 ft 230 kts 68°
2026-04-21 08:34 24.44065 124.33437 4899 ft 248 kts 68°
2026-04-21 08:34 24.44727 124.35265 5569 ft 268 kts 68°
2026-04-21 08:34 24.45430 124.37220 6314 ft 283 kts 68°
2026-04-21 08:34 24.46153 124.39237 7264 ft 289 kts 68°
2026-04-21 08:35 24.46882 124.41273 8244 ft 293 kts 67°
2026-04-21 08:35 24.47636 124.43378 9199 ft 298 kts 67°
2026-04-21 08:35 24.48392 124.45489 10142 ft 302 kts 67°
2026-04-21 08:35 24.49177 124.47678 10823 ft 316 kts 67°
2026-04-21 08:36 24.49992 124.49955 11398 ft 332 kts 67°
2026-04-21 08:36 24.50865 124.52394 11927 ft 348 kts 67°
2026-04-21 08:36 24.51765 124.54903 12602 ft 359 kts 68°
2026-04-21 08:36 24.52676 124.57447 13403 ft 364 kts 68°
2026-04-21 08:37 24.53603 124.60042 14182 ft 370 kts 68°
2026-04-21 08:37 24.54541 124.62671 14923 ft 375 kts 68°
2026-04-21 08:37 24.55500 124.65360 15698 ft 380 kts 68°
2026-04-21 08:37 24.56473 124.68092 16409 ft 385 kts 68°
2026-04-21 08:38 24.57419 124.70746 17048 ft 390 kts 69°
2026-04-21 08:38 24.58432 124.73587 17754 ft 395 kts 69°
2026-04-21 08:38 24.59440 124.76414 18392 ft 401 kts 69°
2026-04-21 08:38 24.60465 124.79290 19035 ft 406 kts 69°
2026-04-21 08:39 24.61505 124.82210 19655 ft 412 kts 69°
2026-04-21 08:39 24.62553 124.85149 20246 ft 417 kts 69°
2026-04-21 08:39 24.63612 124.88117 20881 ft 421 kts 69°
2026-04-21 08:39 24.64679 124.91114 21630 ft 420 kts 69°
2026-04-21 08:40 24.65742 124.94099 22393 ft 419 kts 69°
2026-04-21 08:40 24.66798 124.97071 23103 ft 419 kts 69°
2026-04-21 08:40 24.67843 125.00021 23804 ft 419 kts 69°
2026-04-21 08:40 24.68909 125.03029 24532 ft 418 kts 69°
2026-04-21 08:41 24.69959 125.05995 25214 ft 418 kts 69°
2026-04-21 08:41 24.71011 125.08968 25868 ft 419 kts 69°
2026-04-21 08:41 24.72055 125.11961 26526 ft 418 kts 69°
2026-04-21 08:41 24.73050 125.14922 26960 ft 421 kts 70°
2026-04-21 08:42 24.74061 125.17992 26994 ft 422 kts 70°
2026-04-21 08:42 24.75036 125.20976 26995 ft 418 kts 70°
2026-04-21 08:42 24.76021 125.23988 26996 ft 417 kts 70°
2026-04-21 08:42 24.77010 125.26970 26995 ft 417 kts 69°
2026-04-21 08:43 24.78129 125.29935 26997 ft 418 kts 63°
2026-04-21 08:43 24.79497 125.32776 26998 ft 418 kts 59°
2026-04-21 08:43 24.80995 125.35506 26998 ft 416 kts 56°
2026-04-21 08:43 24.82543 125.38177 26997 ft 415 kts 56°
2026-04-21 08:44 24.84125 125.40860 26998 ft 416 kts 56°
2026-04-21 08:44 24.85696 125.43529 26997 ft 416 kts 56°
2026-04-21 08:44 24.87247 125.46185 26997 ft 416 kts 56°
2026-04-21 08:44 24.88817 125.48901 26999 ft 417 kts 56°
2026-04-21 08:45 24.90366 125.51604 26996 ft 416 kts 57°
2026-04-21 08:45 24.91915 125.54324 26997 ft 416 kts 57°
2026-04-21 08:45 24.93442 125.57016 26998 ft 415 kts 57°
2026-04-21 08:45 24.94970 125.59715 26999 ft 416 kts 57°
2026-04-21 08:46 24.96503 125.62428 27000 ft 416 kts 57°
2026-04-21 08:46 24.98036 125.65144 27001 ft 417 kts 57°
2026-04-21 08:46 24.99570 125.67865 27002 ft 415 kts 57°
2026-04-21 08:46 25.01096 125.70574 27001 ft 415 kts 57°
2026-04-21 08:47 25.02624 125.73287 27000 ft 416 kts 57°
2026-04-21 08:47 25.04157 125.76012 27001 ft 417 kts 57°
2026-04-21 08:47 25.05681 125.78720 26995 ft 417 kts 57°
2026-04-21 08:47 25.07215 125.81447 26993 ft 418 kts 57°
2026-04-21 08:48 25.08748 125.84175 26989 ft 417 kts 57°
2026-04-21 08:48 25.10285 125.86913 26989 ft 417 kts 57°
2026-04-21 08:48 25.11793 125.89600 26988 ft 417 kts 57°
2026-04-21 08:48 25.13323 125.92329 26992 ft 417 kts 58°
2026-04-21 08:49 25.14851 125.95053 26991 ft 418 kts 57°
2026-04-21 08:49 25.16378 125.97781 26990 ft 417 kts 57°
2026-04-21 08:49 25.17910 126.00516 26989 ft 417 kts 58°
2026-04-21 08:49 25.19430 126.03234 26988 ft 417 kts 57°
2026-04-21 08:50 25.20953 126.05956 26988 ft 417 kts 57°
2026-04-21 08:50 25.22482 126.08689 26988 ft 418 kts 58°
2026-04-21 08:50 25.24001 126.11409 26990 ft 417 kts 58°
2026-04-21 08:50 25.25523 126.14136 26987 ft 417 kts 58°
2026-04-21 08:51 25.27042 126.16859 26987 ft 416 kts 58°
2026-04-21 08:51 25.28576 126.19610 26987 ft 416 kts 58°
2026-04-21 08:51 25.30101 126.22347 26988 ft 417 kts 58°
2026-04-21 08:51 25.31599 126.25036 26987 ft 417 kts 58°
2026-04-21 08:52 25.33122 126.27771 26988 ft 417 kts 58°
2026-04-21 08:52 25.34638 126.30496 26987 ft 416 kts 58°
2026-04-21 08:52 25.36144 126.33207 26885 ft 412 kts 57°
2026-04-21 08:52 25.37645 126.35910 26541 ft 407 kts 57°
2026-04-21 08:53 25.39125 126.38576 26038 ft 406 kts 57°
2026-04-21 08:53 25.40591 126.41215 25451 ft 407 kts 57°
2026-04-21 08:53 25.42077 126.43895 24819 ft 409 kts 58°
2026-04-21 08:53 25.43570 126.46586 24117 ft 413 kts 58°
2026-04-21 08:54 25.45069 126.49291 23411 ft 416 kts 58°
2026-04-21 08:54 25.46571 126.52001 22824 ft 416 kts 58°
2026-04-21 08:54 25.48094 126.54753 22309 ft 414 kts 58°
2026-04-21 08:54 25.49582 126.57450 21796 ft 412 kts 58°
2026-04-21 08:55 25.51067 126.60149 21267 ft 411 kts 58°
2026-04-21 08:55 25.52536 126.62826 20736 ft 409 kts 58°
2026-04-21 08:55 25.54019 126.65528 20198 ft 408 kts 59°
2026-04-21 08:55 25.55479 126.68191 19694 ft 405 kts 59°
2026-04-21 08:56 25.56938 126.70851 19176 ft 402 kts 59°
2026-04-21 08:56 25.58367 126.73460 18655 ft 399 kts 59°
2026-04-21 08:56 25.59811 126.76096 18123 ft 397 kts 59°
2026-04-21 08:56 25.61243 126.78715 17596 ft 394 kts 59°
2026-04-21 08:57 25.62652 126.81292 17076 ft 391 kts 59°
2026-04-21 08:57 25.64037 126.83826 16563 ft 388 kts 59°
2026-04-21 08:57 25.65437 126.86387 16038 ft 386 kts 59°
2026-04-21 08:57 25.66811 126.88903 15520 ft 383 kts 59°
2026-04-21 08:58 25.68189 126.91427 15008 ft 380 kts 59°
2026-04-21 08:58 25.69549 126.93919 14498 ft 377 kts 59°
2026-04-21 08:58 25.70900 126.96396 13975 ft 375 kts 59°
2026-04-21 08:58 25.72250 126.98872 13464 ft 372 kts 59°
2026-04-21 08:59 25.73572 127.01299 12962 ft 369 kts 59°
2026-04-21 08:59 25.74903 127.03745 12452 ft 367 kts 59°
2026-04-21 08:59 25.76205 127.06137 11957 ft 363 kts 59°
2026-04-21 08:59 25.77498 127.08514 11462 ft 360 kts 58°
2026-04-21 09:00 25.78787 127.10886 10967 ft 357 kts 58°
2026-04-21 09:00 25.80071 127.13249 10494 ft 353 kts 58°
2026-04-21 09:00 25.81320 127.15550 10239 ft 342 kts 58°
2026-04-21 09:00 25.82519 127.17761 10124 ft 328 kts 58°
2026-04-21 09:01 25.83680 127.19906 9805 ft 322 kts 58°
2026-04-21 09:01 25.84827 127.22021 9390 ft 319 kts 58°
2026-04-21 09:01 25.85963 127.24115 9003 ft 316 kts 58°
2026-04-21 09:01 25.87082 127.26179 8630 ft 312 kts 58°
2026-04-21 09:02 25.88204 127.28249 8255 ft 308 kts 58°
2026-04-21 09:02 25.89272 127.30266 7887 ft 304 kts 61°
2026-04-21 09:02 25.90099 127.32429 7513 ft 301 kts 71°
2026-04-21 09:03 25.91146 127.36896 6787 ft 295 kts 76°
2026-04-21 09:03 25.91605 127.39080 6422 ft 291 kts 76°
2026-04-21 09:03 25.92084 127.41261 6074 ft 288 kts 76°
2026-04-21 09:03 25.92575 127.43420 5721 ft 284 kts 75°
2026-04-21 09:04 25.93068 127.45541 5365 ft 281 kts 75°
2026-04-21 09:04 25.93556 127.47625 5023 ft 278 kts 75°
2026-04-21 09:04 25.94040 127.49689 4677 ft 275 kts 75°
2026-04-21 09:04 25.94515 127.51726 4388 ft 270 kts 75°
2026-04-21 09:05 25.94976 127.53699 4287 ft 258 kts 75°
2026-04-21 09:05 25.95424 127.55617 4203 ft 246 kts 75°
2026-04-21 09:05 25.95845 127.57393 4132 ft 234 kts 73°
2026-04-21 09:05 25.96440 127.59052 4030 ft 224 kts 57°
2026-04-21 09:06 25.97513 127.60248 3803 ft 221 kts 33°
2026-04-21 09:06 25.98853 127.61128 3553 ft 219 kts 31°
2026-04-21 09:06 26.00166 127.61996 3326 ft 217 kts 33°
2026-04-21 09:06 26.01411 127.62887 3113 ft 212 kts 34°
2026-04-21 09:07 26.02639 127.63799 2941 ft 206 kts 34°
2026-04-21 09:07 26.03807 127.64670 2783 ft 200 kts 34°
2026-04-21 09:07 26.05042 127.65331 2568 ft 197 kts 14°
2026-04-21 09:07 26.06424 127.65282 2295 ft 197 kts 349°
2026-04-21 09:08 26.07776 127.65036 2030 ft 193 kts 358°
2026-04-21 09:08 26.09107 127.65018 1775 ft 192 kts
2026-04-21 09:08 26.10429 127.64989 1548 ft 180 kts 359°
2026-04-21 09:08 26.11644 127.64909 1271 ft 169 kts 358°
2026-04-21 09:09 26.12778 127.64858 1107 ft 151 kts
2026-04-21 09:09 26.13819 127.64816 879 ft 147 kts 359°
2026-04-21 09:09 26.14841 127.64761 697 ft 145 kts 359°
2026-04-21 09:09 26.15864 127.64719 508 ft 145 kts 359°
2026-04-21 09:10 26.16881 127.64670 329 ft 147 kts 359°
2026-04-21 09:10 26.17934 127.64651 144 ft 151 kts
2026-04-21 09:10 26.18971 127.64613 27 ft 142 kts 358°
2026-04-21 09:10 26.19720 127.64582 28 ft 71 kts 357°
2026-04-21 09:11 26.20075 127.64566 27 ft 44 kts 359°
2026-04-21 09:11 26.20356 127.64655 25 ft 38 kts 29°
2026-04-21 09:11 26.20549 127.64750 26 ft 23 kts
2026-04-21 09:11 26.20643 127.64754 27 ft 8 kts 34°
2026-04-21 09:12 26.20677 127.64799 27 ft 6 kts 48°
2026-04-21 09:12 26.20705 127.64834 28 ft 5 kts 48°
2026-04-21 09:12 26.20723 127.64856 29 ft 1 kts 48°
2026-04-21 09:12 26.20726 127.64860 29 ft 1 kts 48°